Time,TemperatureF,DewpointF,PressureIn,WindDirection,WindDirectionDegrees,WindSpeedMPH,WindSpeedGustMPH,Humidity,HourlyPrecipIn,Conditions,Clouds,dailyrainin,SoftwareType,DateUTC
2013-01-10 00:00:00,33.1,28.4,29.83,South,180,0.0,0.0,83,0.00,,,0.25,WUHU21623XXSP,2013-01-10 08:00:00,
2013-01-10 00:05:00,33.1,28.4,29.83,ESE,112,0.0,0.0,83,0.00,,,0.00,WUHU21623XXSP,2013-01-10 08:05:00,
2013-01-10 00:10:00,33.1,28.4,29.83,SE,135,0.0,0.0,83,0.00,,,0.00,WUHU21623XXSP,2013-01-10 08:10:00,
2013-01-10 00:15:00,33.1,28.4,29.83,SE,135,0.0,0.0,83,0.00,,,0.00,WUHU21623XXSP,2013-01-10 08:15:00,
2013-01-10 00:20:00,32.9,28.3,29.83,SE,135,0.0,0.0,83,0.00,,,0.00,WUHU21623XXSP,2013-01-10 08:20:00,
2013-01-10 00:25:00,32.9,28.3,29.83,SE,135,0.0,0.0,83,0.00,,,0.00,WUHU21623XXSP,2013-01-10 08:25:00,
2013-01-10 00:30:00,32.7,28.1,29.84,SE,135,0.0,0.0,83,0.00,,,0.00,WUHU21623XXSP,2013-01-10 08:30:00,
2013-01-10 00:35:00,32.7,28.1,29.84,SE,135,0.0,0.0,83,0.00,,,0.00,WUHU21623XXSP,2013-01-10 08:35:00,
2013-01-10 00:40:00,32.7,28.1,29.83,SE,135,0.0,0.0,83,0.00,,,0.00,WUHU21623XXSP,2013-01-10 08:40:00,
2013-01-10 00:45:00,32.5,27.9,29.83,SE,135,0.0,0.0,83,0.00,,,0.00,WUHU21623XXSP,2013-01-10 08:45:00,
2013-01-10 00:50:00,32.5,27.9,29.83,SE,135,0.0,0.0,83,0.00,,,0.00,WUHU21623XXSP,2013-01-10 08:50:00,
2013-01-10 00:55:00,32.5,27.9,29.84,SE,135,0.0,0.0,83,0.00,,,0.00,WUHU21623XXSP,2013-01-10 08:55:00,
2013-01-10 01:00:00,32.4,27.8,29.84,SE,135,0.0,0.0,83,0.00,,,0.00,WUHU21623XXSP,2013-01-10 09:00:00,
2013-01-10 01:05:00,32.4,27.8,29.84,SE,135,0.0,0.0,83,0.00,,,0.00,WUHU21623XXSP,2013-01-10 09:05:00,
2013-01-10 01:10:00,32.4,27.8,29.84,SE,135,0.0,0.0,83,0.00,,,0.00,WUHU21623XXSP,2013-01-10 09:10:00,
2013-01-10 01:15:00,32.4,27.8,29.84,SE,135,0.0,0.0,83,0.00,,,0.00,WUHU21623XXSP,2013-01-10 09:15:00,
2013-01-10 01:20:00,32.2,27.6,29.84,SE,135,0.0,0.0,83,0.00,,,0.00,WUHU21623XXSP,2013-01-10 09:20:00,
2013-01-10 01:25:00,32.2,27.6,29.84,SE,135,0.0,0.0,83,0.00,,,0.00,WUHU21623XXSP,2013-01-10 09:25:00,
2013-01-10 01:30:00,32.2,27.6,29.84,SE,135,0.0,0.0,83,0.00,,,0.00,WUHU21623XXSP,2013-01-10 09:30:00,
2013-01-10 01:35:00,32.2,27.6,29.85,SE,135,0.0,0.0,83,0.00,,,0.00,WUHU21623XXSP,2013-01-10 09:35:00,
2013-01-10 01:40:00,32.2,27.6,29.85,SE,135,0.0,0.0,83,0.00,,,0.00,WUHU21623XXSP,2013-01-10 09:40:00,
2013-01-10 01:45:00,32.2,27.6,29.85,SE,135,0.0,0.0,83,0.00,,,0.00,WUHU21623XXSP,2013-01-10 09:45:00,
2013-01-10 01:50:00,32.2,27.6,29.85,SE,135,0.0,0.0,83,0.00,,,0.00,WUHU21623XXSP,2013-01-10 09:50:00,
2013-01-10 01:55:00,32.2,27.6,29.85,SE,135,0.0,0.0,83,0.00,,,0.00,WUHU21623XXSP,2013-01-10 09:55:00,
2013-01-10 02:00:00,32.0,27.5,29.85,SE,135,0.0,0.0,83,0.00,,,0.00,WUHU21623XXSP,2013-01-10 10:00:00,
2013-01-10 02:05:00,31.8,27.3,29.86,SE,135,0.0,0.0,83,0.00,,,0.00,WUHU21623XXSP,2013-01-10 10:05:00,
2013-01-10 02:10:00,31.8,27.3,29.86,SE,135,0.0,0.0,83,0.00,,,0.00,WUHU21623XXSP,2013-01-10 10:10:00,
2013-01-10 02:15:00,31.8,27.3,29.86,SE,135,0.0,0.0,83,0.00,,,0.00,WUHU21623XXSP,2013-01-10 10:15:00,
2013-01-10 02:20:00,31.8,27.3,29.86,SE,135,0.0,0.0,83,0.00,,,0.00,WUHU21623XXSP,2013-01-10 10:20:00,
2013-01-10 02:25:00,31.8,27.3,29.86,SE,135,0.0,0.0,83,0.00,,,0.00,WUHU21623XXSP,2013-01-10 10:25:00,
2013-01-10 02:30:00,31.8,27.3,29.86,SE,135,0.0,0.0,83,0.00,,,0.00,WUHU21623XXSP,2013-01-10 10:30:00,
2013-01-10 02:35:00,31.8,27.3,29.86,SE,135,0.0,0.0,83,0.00,,,0.00,WUHU21623XXSP,2013-01-10 10:35:00,
2013-01-10 02:40:00,31.8,27.3,29.86,SE,135,0.0,0.0,83,0.00,,,0.00,WUHU21623XXSP,2013-01-10 10:40:00,
2013-01-10 02:45:00,31.8,27.6,29.86,SE,135,0.0,0.0,84,0.00,,,0.00,WUHU21623XXSP,2013-01-10 10:45:00,
2013-01-10 02:50:00,31.6,27.1,29.86,SE,135,0.0,0.0,83,0.00,,,0.00,WUHU21623XXSP,2013-01-10 10:50:00,
2013-01-10 02:55:00,31.6,27.4,29.86,SE,135,0.0,0.0,84,0.00,,,0.00,WUHU21623XXSP,2013-01-10 10:55:00,
2013-01-10 03:00:00,31.6,27.1,29.86,SE,135,0.0,0.0,83,0.00,,,0.00,WUHU21623XXSP,2013-01-10 11:00:00,
2013-01-10 03:05:00,31.6,27.1,29.86,SE,135,0.0,0.0,83,0.00,,,0.00,WUHU21623XXSP,2013-01-10 11:05:00,
2013-01-10 03:10:00,31.6,27.4,29.87,SE,135,0.0,0.0,84,0.00,,,0.00,WUHU21623XXSP,2013-01-10 11:10:00,
2013-01-10 03:15:00,31.6,27.1,29.86,SE,135,0.0,0.0,83,0.00,,,0.00,WUHU21623XXSP,2013-01-10 11:15:00,
2013-01-10 03:20:00,31.6,27.1,29.86,SE,135,0.0,0.0,83,0.00,,,0.00,WUHU21623XXSP,2013-01-10 11:20:00,
2013-01-10 03:25:00,31.6,27.1,29.86,SE,135,0.0,0.0,83,0.00,,,0.00,WUHU21623XXSP,2013-01-10 11:25:00,
2013-01-10 03:30:00,31.6,27.1,29.86,SE,135,0.0,0.0,83,0.00,,,0.00,WUHU21623XXSP,2013-01-10 11:30:00,
2013-01-10 03:35:00,31.6,27.1,29.86,SE,135,0.0,0.0,83,0.00,,,0.00,WUHU21623XXSP,2013-01-10 11:35:00,
2013-01-10 03:40:00,31.6,27.4,29.86,SE,135,0.0,0.0,84,0.00,,,0.00,WUHU21623XXSP,2013-01-10 11:40:00,
2013-01-10 03:45:00,31.3,27.0,29.86,SE,135,0.0,0.0,84,0.00,,,0.00,WUHU21623XXSP,2013-01-10 11:45:00,
2013-01-10 03:50:00,31.3,26.7,29.86,SE,135,0.0,0.0,83,0.00,,,0.00,WUHU21623XXSP,2013-01-10 11:50:00,
2013-01-10 03:55:00,31.3,26.7,29.85,SE,135,0.0,0.0,83,0.00,,,0.00,WUHU21623XXSP,2013-01-10 11:55:00,
2013-01-10 04:00:00,31.3,27.0,29.85,SE,135,0.0,0.0,84,0.00,,,0.00,WUHU21623XXSP,2013-01-10 12:00:00,
2013-01-10 04:05:00,31.5,26.9,29.85,SE,135,0.0,0.0,83,0.00,,,0.00,WUHU21623XXSP,2013-01-10 12:05:00,
2013-01-10 04:10:00,31.6,27.1,29.85,SE,135,0.0,0.0,83,0.00,,,0.00,WUHU21623XXSP,2013-01-10 12:10:00,
2013-01-10 04:15:00,31.6,27.1,29.85,SE,135,0.0,0.0,83,0.00,,,0.00,WUHU21623XXSP,2013-01-10 12:15:00,
2013-01-10 04:20:00,31.6,27.1,29.86,SE,135,0.0,0.0,83,0.00,,,0.00,WUHU21623XXSP,2013-01-10 12:20:00,
2013-01-10 04:25:00,31.6,27.1,29.86,SE,135,0.0,0.0,83,0.00,,,0.00,WUHU21623XXSP,2013-01-10 12:25:00,
2013-01-10 04:30:00,31.6,27.1,29.86,SE,135,0.0,0.0,83,0.00,,,0.00,WUHU21623XXSP,2013-01-10 12:30:00,
2013-01-10 04:35:00,31.6,27.1,29.86,SE,135,0.0,0.0,83,0.00,,,0.00,WUHU21623XXSP,2013-01-10 12:35:00,
2013-01-10 04:40:00,31.6,27.1,29.86,SE,135,0.0,0.0,83,0.00,,,0.00,WUHU21623XXSP,2013-01-10 12:40:00,
2013-01-10 04:45:00,31.5,27.2,29.86,SE,135,0.0,0.0,84,0.00,,,0.00,WUHU21623XXSP,2013-01-10 12:45:00,
2013-01-10 04:50:00,31.3,27.0,29.86,SE,135,0.0,0.0,84,0.00,,,0.00,WUHU21623XXSP,2013-01-10 12:50:00,
2013-01-10 04:55:00,31.3,27.0,29.86,SE,135,0.0,0.0,84,0.00,,,0.00,WUHU21623XXSP,2013-01-10 12:55:00,
2013-01-10 05:00:00,31.3,27.0,29.86,SE,135,0.0,0.0,84,0.00,,,0.00,WUHU21623XXSP,2013-01-10 13:00:00,
2013-01-10 05:05:00,31.3,27.0,29.86,SE,135,0.0,0.0,84,0.00,,,0.00,WUHU21623XXSP,2013-01-10 13:05:00,
2013-01-10 05:10:00,31.3,27.0,29.86,SE,135,0.0,0.0,84,0.00,,,0.00,WUHU21623XXSP,2013-01-10 13:10:00,
2013-01-10 05:15:00,31.1,26.9,29.86,SE,135,0.0,0.0,84,0.00,,,0.00,WUHU21623XXSP,2013-01-10 13:15:00,
2013-01-10 05:20:00,31.1,26.9,29.86,SE,135,0.0,0.0,84,0.00,,,0.00,WUHU21623XXSP,2013-01-10 13:20:00,
2013-01-10 05:25:00,31.1,26.9,29.87,SE,135,0.0,0.0,84,0.00,,,0.00,WUHU21623XXSP,2013-01-10 13:25:00,
2013-01-10 05:30:00,31.1,26.9,29.87,SE,135,0.0,0.0,84,0.00,,,0.00,WUHU21623XXSP,2013-01-10 13:30:00,
2013-01-10 05:35:00,30.9,26.7,29.87,SE,135,0.0,0.0,84,0.00,,,0.00,WUHU21623XXSP,2013-01-10 13:35:00,
2013-01-10 05:40:00,30.9,26.7,29.87,SE,135,0.0,0.0,84,0.00,,,0.00,WUHU21623XXSP,2013-01-10 13:40:00,
2013-01-10 05:45:00,30.9,26.7,29.87,SE,135,0.0,0.0,84,0.00,,,0.00,WUHU21623XXSP,2013-01-10 13:45:00,
2013-01-10 05:50:00,30.7,26.5,29.87,SE,135,0.0,0.0,84,0.00,,,0.00,WUHU21623XXSP,2013-01-10 13:50:00,
2013-01-10 05:55:00,30.7,26.5,29.87,SE,135,0.0,0.0,84,0.00,,,0.00,WUHU21623XXSP,2013-01-10 13:55:00,
2013-01-10 06:00:00,30.7,26.2,29.87,SE,135,0.0,0.0,83,0.00,,,0.00,WUHU21623XXSP,2013-01-10 14:00:00,
2013-01-10 06:06:00,30.7,26.2,29.88,SE,135,0.0,0.0,83,0.00,,,0.00,WUHU21623XXSP,2013-01-10 14:06:00,
2013-01-10 06:11:00,30.7,26.2,29.87,SE,135,0.0,0.0,83,0.00,,,0.00,WUHU21623XXSP,2013-01-10 14:11:00,
2013-01-10 06:16:00,30.6,26.0,29.88,SE,135,0.0,0.0,83,0.00,,,0.00,WUHU21623XXSP,2013-01-10 14:16:00,
2013-01-10 06:21:00,30.7,26.2,29.87,SE,135,0.0,0.0,83,0.00,,,0.00,WUHU21623XXSP,2013-01-10 14:21:00,
2013-01-10 06:26:00,30.6,26.0,29.88,SE,135,0.0,0.0,83,0.00,,,0.00,WUHU21623XXSP,2013-01-10 14:26:00,
2013-01-10 06:31:00,30.6,26.0,29.88,SE,135,0.0,0.0,83,0.00,,,0.00,WUHU21623XXSP,2013-01-10 14:31:00,
2013-01-10 06:36:00,30.6,26.0,29.87,SE,135,0.0,0.0,83,0.00,,,0.00,WUHU21623XXSP,2013-01-10 14:36:00,
2013-01-10 06:41:00,30.6,26.0,29.88,SE,135,0.0,0.0,83,0.00,,,0.00,WUHU21623XXSP,2013-01-10 14:41:00,
2013-01-10 06:46:00,30.6,26.0,29.88,SE,135,0.0,0.0,83,0.00,,,0.00,WUHU21623XXSP,2013-01-10 14:46:00,
2013-01-10 06:50:00,30.6,26.0,29.88,SE,135,0.0,0.0,83,0.00,,,0.00,WUHU21623XXSP,2013-01-10 14:50:00,
2013-01-10 06:56:00,30.6,26.0,29.88,SE,135,0.0,0.0,83,0.00,,,0.00,WUHU21623XXSP,2013-01-10 14:56:00,
2013-01-10 07:01:00,30.6,26.0,29.88,SE,135,0.0,0.0,83,0.00,,,0.00,WUHU21623XXSP,2013-01-10 15:01:00,
2013-01-10 07:06:00,30.4,25.8,29.88,SE,135,0.0,0.0,83,0.00,,,0.00,WUHU21623XXSP,2013-01-10 15:06:00,
2013-01-10 07:10:00,30.4,25.8,29.88,SE,135,0.0,0.0,83,0.00,,,0.00,WUHU21623XXSP,2013-01-10 15:10:00,
2013-01-10 07:15:00,30.4,25.8,29.89,SE,135,0.0,0.0,83,0.00,,,0.00,WUHU21623XXSP,2013-01-10 15:15:00,
2013-01-10 07:20:00,30.4,25.8,29.88,SE,135,0.0,0.0,83,0.00,,,0.00,WUHU21623XXSP,2013-01-10 15:20:00,
2013-01-10 07:25:00,30.4,25.8,29.89,SE,135,0.0,0.0,83,0.00,,,0.00,WUHU21623XXSP,2013-01-10 15:25:00,
2013-01-10 07:30:00,30.4,25.8,29.89,SE,135,0.0,0.0,83,0.00,,,0.00,WUHU21623XXSP,2013-01-10 15:30:00,
2013-01-10 07:35:00,30.4,25.8,29.89,SE,135,0.0,0.0,83,0.00,,,0.00,WUHU21623XXSP,2013-01-10 15:35:00,
2013-01-10 07:40:00,30.4,25.8,29.89,SE,135,0.0,0.0,83,0.00,,,0.00,WUHU21623XXSP,2013-01-10 15:40:00,
2013-01-10 07:45:00,30.4,25.8,29.89,SE,135,0.0,0.0,83,0.00,,,0.00,WUHU21623XXSP,2013-01-10 15:45:00,
2013-01-10 07:50:00,30.6,26.0,29.90,SE,135,0.0,0.0,83,0.00,,,0.00,WUHU21623XXSP,2013-01-10 15:50:00,
2013-01-10 07:55:00,30.6,26.0,29.89,SE,135,0.0,0.0,83,0.00,,,0.00,WUHU21623XXSP,2013-01-10 15:55:00,
2013-01-10 08:00:00,30.6,26.0,29.90,SE,135,0.0,0.0,83,0.00,,,0.00,WUHU21623XXSP,2013-01-10 16:00:00,
2013-01-10 08:05:00,30.6,26.0,29.90,SE,135,0.0,0.0,83,0.00,,,0.00,WUHU21623XXSP,2013-01-10 16:05:00,
2013-01-10 08:10:00,30.6,26.0,29.90,SE,135,0.0,0.0,83,0.00,,,0.00,WUHU21623XXSP,2013-01-10 16:10:00,
2013-01-10 08:15:00,30.7,26.2,29.91,SE,135,0.0,0.0,83,0.00,,,0.00,WUHU21623XXSP,2013-01-10 16:15:00,
2013-01-10 08:20:00,30.7,26.2,29.91,SE,135,0.0,0.0,83,0.00,,,0.00,WUHU21623XXSP,2013-01-10 16:20:00,
2013-01-10 08:25:00,30.7,26.2,29.91,SE,135,0.0,0.0,83,0.00,,,0.00,WUHU21623XXSP,2013-01-10 16:25:00,
2013-01-10 08:30:00,30.7,26.5,29.91,SE,135,0.0,0.0,84,0.00,,,0.00,WUHU21623XXSP,2013-01-10 16:30:00,
2013-01-10 08:35:00,30.7,26.5,29.91,SE,135,0.0,0.0,84,0.00,,,0.00,WUHU21623XXSP,2013-01-10 16:35:00,
2013-01-10 08:40:00,30.9,26.7,29.91,SE,135,0.0,0.0,84,0.00,,,0.00,WUHU21623XXSP,2013-01-10 16:40:00,
2013-01-10 08:45:00,31.1,26.9,29.91,SE,135,0.0,0.0,84,0.00,,,0.00,WUHU21623XXSP,2013-01-10 16:45:00,
2013-01-10 08:50:00,31.1,26.6,29.91,SE,135,0.0,0.0,83,0.00,,,0.00,WUHU21623XXSP,2013-01-10 16:50:00,
2013-01-10 08:55:00,31.5,26.9,29.91,SE,135,0.0,0.0,83,0.00,,,0.00,WUHU21623XXSP,2013-01-10 16:55:00,
2013-01-10 09:00:00,31.6,27.1,29.92,SE,135,0.0,0.0,83,0.00,,,0.00,WUHU21623XXSP,2013-01-10 17:00:00,
2013-01-10 09:05:00,31.8,27.3,29.92,SE,135,0.0,0.0,83,0.00,,,0.00,WUHU21623XXSP,2013-01-10 17:05:00,
2013-01-10 09:10:00,32.2,27.6,29.93,SE,135,0.0,0.0,83,0.00,,,0.00,WUHU21623XXSP,2013-01-10 17:10:00,
2013-01-10 09:15:00,32.4,27.8,29.92,SE,135,0.0,0.0,83,0.00,,,0.00,WUHU21623XXSP,2013-01-10 17:15:00,
2013-01-10 09:20:00,32.5,27.9,29.92,SE,135,0.0,0.0,83,0.00,,,0.00,WUHU21623XXSP,2013-01-10 17:20:00,
2013-01-10 09:25:00,32.7,28.1,29.92,SE,135,0.0,0.0,83,0.00,,,0.00,WUHU21623XXSP,2013-01-10 17:25:00,
2013-01-10 09:30:00,33.1,28.4,29.92,SE,135,0.0,0.0,83,0.00,,,0.00,WUHU21623XXSP,2013-01-10 17:30:00,
2013-01-10 09:35:00,33.4,28.8,29.92,SE,135,0.0,0.0,83,0.00,,,0.00,WUHU21623XXSP,2013-01-10 17:35:00,
2013-01-10 09:40:00,33.6,28.9,29.92,SE,135,0.0,0.0,83,0.00,,,0.00,WUHU21623XXSP,2013-01-10 17:40:00,
2013-01-10 09:45:00,34.0,29.3,29.92,SE,135,0.0,0.0,83,0.00,,,0.00,WUHU21623XXSP,2013-01-10 17:45:00,
2013-01-10 09:50:00,34.3,29.6,29.92,SE,135,0.0,0.0,83,0.00,,,0.00,WUHU21623XXSP,2013-01-10 17:50:00,
2013-01-10 09:55:00,34.3,29.6,29.92,SE,135,0.0,0.0,83,0.00,,,0.00,WUHU21623XXSP,2013-01-10 17:55:00,
2013-01-10 10:00:00,34.9,30.2,29.92,SE,135,0.0,0.0,83,0.00,,,0.00,WUHU21623XXSP,2013-01-10 18:00:00,
2013-01-10 10:05:00,35.4,30.7,29.92,SE,135,0.0,0.0,83,0.00,,,0.00,WUHU21623XXSP,2013-01-10 18:05:00,
2013-01-10 10:10:00,35.8,31.1,29.92,SE,135,0.0,0.0,83,0.00,,,0.00,WUHU21623XXSP,2013-01-10 18:10:00,
2013-01-10 10:15:00,36.3,31.9,29.92,SE,135,0.0,0.0,84,0.00,,,0.00,WUHU21623XXSP,2013-01-10 18:15:00,
2013-01-10 10:20:00,36.7,32.3,29.92,SW,225,0.0,0.0,84,0.00,,,0.00,WUHU21623XXSP,2013-01-10 18:20:00,
2013-01-10 10:25:00,37.2,32.8,29.92,SW,225,0.0,0.0,84,0.00,,,0.00,WUHU21623XXSP,2013-01-10 18:25:00,
2013-01-10 10:30:00,37.6,33.2,29.92,SW,225,0.0,0.0,84,0.00,,,0.00,WUHU21623XXSP,2013-01-10 18:30:00,
2013-01-10 10:35:00,37.8,33.3,29.92,SW,225,0.0,0.0,84,0.00,,,0.00,WUHU21623XXSP,2013-01-10 18:35:00,
2013-01-10 10:40:00,37.9,33.2,29.92,SW,225,0.0,0.0,83,0.00,,,0.00,WUHU21623XXSP,2013-01-10 18:40:00,
2013-01-10 10:45:00,38.3,33.6,29.92,SW,225,0.0,0.0,83,0.00,,,0.00,WUHU21623XXSP,2013-01-10 18:45:00,
2013-01-10 10:50:00,38.5,33.5,29.92,SW,225,0.0,0.0,82,0.00,,,0.00,WUHU21623XXSP,2013-01-10 18:50:00,
2013-01-10 10:55:00,38.5,33.5,29.92,SW,225,0.0,0.0,82,0.00,,,0.00,WUHU21623XXSP,2013-01-10 18:55:00,
2013-01-10 11:00:00,38.8,33.5,29.91,SW,225,0.0,0.0,81,0.00,,,0.00,WUHU21623XXSP,2013-01-10 19:00:00,
2013-01-10 11:05:00,39.0,33.1,29.91,WSW,247,0.0,0.0,79,0.00,,,0.00,WUHU21623XXSP,2013-01-10 19:05:00,
2013-01-10 11:10:00,39.0,33.1,29.91,WSW,247,0.0,0.0,79,0.00,,,0.00,WUHU21623XXSP,2013-01-10 19:10:00,
2013-01-10 11:15:00,39.4,33.1,29.91,West,270,0.0,0.0,78,0.00,,,0.00,WUHU21623XXSP,2013-01-10 19:15:00,
2013-01-10 11:20:00,39.4,32.8,29.91,West,270,0.0,0.0,77,0.00,,,0.00,WUHU21623XXSP,2013-01-10 19:20:00,
2013-01-10 11:25:00,39.6,32.9,29.91,West,270,0.0,0.0,77,0.00,,,0.00,WUHU21623XXSP,2013-01-10 19:25:00,
2013-01-10 11:30:00,39.9,33.3,29.91,West,270,0.0,0.0,77,0.00,,,0.00,WUHU21623XXSP,2013-01-10 19:30:00,
2013-01-10 11:35:00,39.9,32.9,29.90,West,270,0.0,0.0,76,0.00,,,0.00,WUHU21623XXSP,2013-01-10 19:35:00,
2013-01-10 11:40:00,40.3,33.3,29.90,West,270,0.0,0.0,76,0.00,,,0.00,WUHU21623XXSP,2013-01-10 19:40:00,
2013-01-10 11:45:00,40.5,33.4,29.90,West,270,0.0,0.0,76,0.00,,,0.00,WUHU21623XXSP,2013-01-10 19:45:00,
2013-01-10 11:50:00,40.6,33.9,29.90,West,270,0.0,0.0,77,0.00,,,0.00,WUHU21623XXSP,2013-01-10 19:50:00,
2013-01-10 11:55:00,40.8,33.8,29.91,WNW,292,0.0,0.0,76,0.00,,,0.00,WUHU21623XXSP,2013-01-10 19:55:00,
2013-01-10 12:00:00,40.8,33.8,29.90,West,270,0.0,0.0,76,0.00,,,0.00,WUHU21623XXSP,2013-01-10 20:00:00,
2013-01-10 12:05:00,41.2,34.4,29.90,West,270,0.0,0.0,77,0.00,,,0.00,WUHU21623XXSP,2013-01-10 20:05:00,
2013-01-10 12:10:00,41.2,34.1,29.90,WNW,292,0.0,0.0,76,0.00,,,0.00,WUHU21623XXSP,2013-01-10 20:10:00,
2013-01-10 12:15:00,41.2,34.1,29.90,WSW,247,0.0,0.0,76,0.00,,,0.00,WUHU21623XXSP,2013-01-10 20:15:00,
2013-01-10 12:20:00,41.4,34.3,29.90,West,270,0.0,0.0,76,0.00,,,0.00,WUHU21623XXSP,2013-01-10 20:20:00,
2013-01-10 12:25:00,41.2,33.8,29.89,NNW,337,0.0,0.0,75,0.00,,,0.00,WUHU21623XXSP,2013-01-10 20:25:00,
2013-01-10 12:30:00,41.2,34.1,29.89,West,270,0.0,0.0,76,0.00,,,0.00,WUHU21623XXSP,2013-01-10 20:30:00,
2013-01-10 12:36:00,41.5,34.5,29.89,WSW,247,0.0,0.0,76,0.00,,,0.00,WUHU21623XXSP,2013-01-10 20:36:00,
2013-01-10 12:41:00,41.5,34.5,29.89,West,270,0.0,0.0,76,0.00,,,0.00,WUHU21623XXSP,2013-01-10 20:41:00,
2013-01-10 12:46:00,41.5,34.2,29.89,WNW,292,0.0,0.0,75,0.00,,,0.00,WUHU21623XXSP,2013-01-10 20:46:00,
2013-01-10 12:51:00,41.7,34.3,29.89,SSE,157,0.0,0.0,75,0.00,,,0.00,WUHU21623XXSP,2013-01-10 20:51:00,
2013-01-10 12:56:00,42.1,34.7,29.89,WNW,292,0.0,0.0,75,0.00,,,0.00,WUHU21623XXSP,2013-01-10 20:56:00,
2013-01-10 13:01:00,42.1,34.7,29.89,NW,315,0.0,0.0,75,0.00,,,0.00,WUHU21623XXSP,2013-01-10 21:01:00,
2013-01-10 13:06:00,42.1,34.7,29.88,NNW,337,0.0,0.0,75,0.00,,,0.00,WUHU21623XXSP,2013-01-10 21:06:00,
2013-01-10 13:11:00,42.1,34.4,29.88,West,270,0.0,0.0,74,0.00,,,0.00,WUHU21623XXSP,2013-01-10 21:11:00,
2013-01-10 13:16:00,42.4,34.7,29.88,West,270,0.0,0.0,74,0.00,,,0.00,WUHU21623XXSP,2013-01-10 21:16:00,
2013-01-10 13:21:00,42.6,34.9,29.88,West,270,0.0,0.0,74,0.00,,,0.00,WUHU21623XXSP,2013-01-10 21:21:00,
2013-01-10 13:26:00,43.0,35.3,29.88,SSW,202,0.0,0.0,74,0.00,,,0.00,WUHU21623XXSP,2013-01-10 21:26:00,
2013-01-10 13:31:00,43.3,35.6,29.88,West,270,0.0,0.0,74,0.00,,,0.00,WUHU21623XXSP,2013-01-10 21:31:00,
2013-01-10 13:36:00,43.5,35.4,29.88,WNW,292,0.0,0.0,73,0.00,,,0.00,WUHU21623XXSP,2013-01-10 21:36:00,
2013-01-10 13:41:00,43.5,35.1,29.88,WNW,292,0.0,0.0,72,0.00,,,0.00,WUHU21623XXSP,2013-01-10 21:41:00,
2013-01-10 13:46:00,43.3,34.9,29.88,NNW,337,0.0,0.0,72,0.00,,,0.00,WUHU21623XXSP,2013-01-10 21:46:00,
2013-01-10 13:51:00,43.2,34.4,29.88,SW,225,0.0,0.0,71,0.00,,,0.00,WUHU21623XXSP,2013-01-10 21:51:00,
2013-01-10 13:56:00,43.3,34.9,29.88,WNW,292,0.0,0.0,72,0.00,,,0.00,WUHU21623XXSP,2013-01-10 21:56:00,
2013-01-10 14:01:00,43.3,34.6,29.88,WSW,247,0.0,0.0,71,0.00,,,0.00,WUHU21623XXSP,2013-01-10 22:01:00,
2013-01-10 14:06:00,43.5,34.4,29.88,West,270,0.0,0.0,70,0.00,,,0.00,WUHU21623XXSP,2013-01-10 22:06:00,
2013-01-10 14:11:00,43.5,34.4,29.88,WNW,292,0.0,0.0,70,0.00,,,0.00,WUHU21623XXSP,2013-01-10 22:11:00,
2013-01-10 14:16:00,43.5,34.1,29.88,WNW,292,0.0,0.0,69,0.00,,,0.00,WUHU21623XXSP,2013-01-10 22:16:00,
2013-01-10 14:21:00,43.2,33.3,29.88,West,270,0.0,0.0,68,0.00,,,0.00,WUHU21623XXSP,2013-01-10 22:21:00,
2013-01-10 14:26:00,43.0,32.4,29.88,NW,315,0.0,0.0,66,0.00,,,0.00,WUHU21623XXSP,2013-01-10 22:26:00,
2013-01-10 14:31:00,42.6,32.0,29.88,West,270,0.0,0.0,66,0.00,,,0.00,WUHU21623XXSP,2013-01-10 22:31:00,
2013-01-10 14:36:00,42.6,32.0,29.88,West,270,0.0,0.0,66,0.00,,,0.00,WUHU21623XXSP,2013-01-10 22:36:00,
2013-01-10 14:41:00,42.6,31.6,29.88,NW,315,0.0,0.0,65,0.00,,,0.00,WUHU21623XXSP,2013-01-10 22:41:00,
2013-01-10 14:46:00,42.6,30.8,29.88,NW,315,0.0,0.0,63,0.00,,,0.00,WUHU21623XXSP,2013-01-10 22:46:00,
2013-01-10 14:51:00,42.6,30.8,29.88,NNW,337,0.0,0.0,63,0.00,,,0.00,WUHU21623XXSP,2013-01-10 22:51:00,
2013-01-10 14:56:00,42.6,30.5,29.88,NNW,337,0.0,0.0,62,0.00,,,0.00,WUHU21623XXSP,2013-01-10 22:56:00,
2013-01-10 15:01:00,42.6,30.8,29.88,NNW,337,0.0,0.0,63,0.00,,,0.00,WUHU21623XXSP,2013-01-10 23:01:00,
2013-01-10 15:06:00,42.6,30.5,29.88,NNW,337,0.0,0.0,62,0.00,,,0.00,WUHU21623XXSP,2013-01-10 23:06:00,
2013-01-10 15:11:00,42.6,30.5,29.88,NNW,337,0.0,0.0,62,0.00,,,0.00,WUHU21623XXSP,2013-01-10 23:11:00,
2013-01-10 15:16:00,42.6,30.5,29.89,NNW,337,0.0,0.0,62,0.00,,,0.00,WUHU21623XXSP,2013-01-10 23:16:00,
2013-01-10 15:21:00,42.6,30.5,29.89,NNW,337,0.0,0.0,62,0.00,,,0.00,WUHU21623XXSP,2013-01-10 23:21:00,
2013-01-10 15:26:00,42.6,30.5,29.89,WNW,292,0.0,0.0,62,0.00,,,0.00,WUHU21623XXSP,2013-01-10 23:26:00,
2013-01-10 15:31:00,42.8,30.6,29.88,NE,45,0.0,0.0,62,0.00,,,0.00,WUHU21623XXSP,2013-01-10 23:31:00,
2013-01-10 15:36:00,43.0,31.2,29.88,NW,315,0.0,0.0,63,0.00,,,0.00,WUHU21623XXSP,2013-01-10 23:36:00,
2013-01-10 15:41:00,42.6,30.8,29.88,WNW,292,0.0,0.0,63,0.00,,,0.00,WUHU21623XXSP,2013-01-10 23:41:00,
2013-01-10 15:46:00,43.0,31.2,29.88,WNW,292,0.0,0.0,63,0.00,,,0.00,WUHU21623XXSP,2013-01-10 23:46:00,
2013-01-10 15:51:00,43.0,31.2,29.88,NW,315,0.0,0.0,63,0.00,,,0.00,WUHU21623XXSP,2013-01-10 23:51:00,
2013-01-10 15:56:00,42.8,30.6,29.89,NNE,22,6.3,6.3,62,0.00,,,0.00,WUHU21623XXSP,2013-01-10 23:56:00,
2013-01-10 16:01:00,42.6,30.5,29.89,North,0,0.0,7.8,62,0.00,,,0.00,WUHU21623XXSP,2013-01-11 00:01:00,
2013-01-10 16:06:00,42.6,30.1,29.89,WNW,292,0.0,7.8,61,0.00,,,0.00,WUHU21623XXSP,2013-01-11 00:06:00,
2013-01-10 16:11:00,42.4,30.3,29.89,WNW,292,0.0,0.0,62,0.00,,,0.00,WUHU21623XXSP,2013-01-11 00:11:00,
2013-01-10 16:16:00,42.4,29.9,29.89,West,270,2.2,2.2,61,0.00,,,0.00,WUHU21623XXSP,2013-01-11 00:16:00,
2013-01-10 16:21:00,42.1,29.6,29.89,West,270,0.0,2.2,61,0.00,,,0.00,WUHU21623XXSP,2013-01-11 00:21:00,
2013-01-10 16:26:00,42.1,29.2,29.89,West,270,0.0,0.0,60,0.00,,,0.00,WUHU21623XXSP,2013-01-11 00:26:00,
2013-01-10 16:31:00,41.9,29.0,29.89,West,270,0.0,0.0,60,0.00,,,0.00,WUHU21623XXSP,2013-01-11 00:31:00,
2013-01-10 16:36:00,41.7,28.9,29.90,WNW,292,0.0,0.0,60,0.00,,,0.00,WUHU21623XXSP,2013-01-11 00:36:00,
2013-01-10 16:41:00,41.5,28.3,29.90,WNW,292,0.0,0.0,59,0.00,,,0.00,WUHU21623XXSP,2013-01-11 00:41:00,
2013-01-10 16:46:00,41.4,27.6,29.90,NNE,22,0.0,0.0,58,0.00,,,0.00,WUHU21623XXSP,2013-01-11 00:46:00,
2013-01-10 16:51:00,41.2,27.0,29.90,NNE,22,0.0,0.0,57,0.00,,,0.00,WUHU21623XXSP,2013-01-11 00:51:00,
2013-01-10 16:56:00,41.2,27.0,29.90,North,0,0.0,0.0,57,0.00,,,0.00,WUHU21623XXSP,2013-01-11 00:56:00,
2013-01-10 17:01:00,41.2,27.0,29.90,North,0,0.0,0.0,57,0.00,,,0.00,WUHU21623XXSP,2013-01-11 01:01:00,
2013-01-10 17:06:00,41.0,26.9,29.90,NNW,337,0.0,0.0,57,0.00,,,0.00,WUHU21623XXSP,2013-01-11 01:06:00,
2013-01-10 17:11:00,40.8,26.2,29.90,North,0,0.0,0.0,56,0.00,,,0.00,WUHU21623XXSP,2013-01-11 01:11:00,
2013-01-10 17:16:00,40.8,26.2,29.90,North,0,0.0,0.0,56,0.00,,,0.00,WUHU21623XXSP,2013-01-11 01:16:00,
2013-01-10 17:21:00,40.6,26.1,29.90,North,0,0.0,0.0,56,0.00,,,0.00,WUHU21623XXSP,2013-01-11 01:21:00,
2013-01-10 17:26:00,40.8,26.2,29.90,NNE,22,0.0,0.0,56,0.00,,,0.00,WUHU21623XXSP,2013-01-11 01:26:00,
2013-01-10 17:31:00,40.6,26.1,29.90,North,0,0.0,0.0,56,0.00,,,0.00,WUHU21623XXSP,2013-01-11 01:31:00,
2013-01-10 17:36:00,40.5,25.9,29.90,NNE,22,0.0,0.0,56,0.00,,,0.00,WUHU21623XXSP,2013-01-11 01:36:00,
2013-01-10 17:41:00,40.3,26.2,29.91,NNE,22,0.0,0.0,57,0.00,,,0.00,WUHU21623XXSP,2013-01-11 01:41:00,
2013-01-10 17:46:00,40.1,26.0,29.91,NNW,337,0.0,0.0,57,0.00,,,0.00,WUHU21623XXSP,2013-01-11 01:46:00,
2013-01-10 17:51:00,39.9,26.3,29.91,NNE,22,0.0,0.0,58,0.00,,,0.00,WUHU21623XXSP,2013-01-11 01:51:00,
2013-01-10 17:56:00,39.9,27.1,29.91,NNE,22,0.0,0.0,60,0.00,,,0.00,WUHU21623XXSP,2013-01-11 01:56:00,
2013-01-10 18:01:00,39.0,26.6,29.91,NNE,22,0.0,0.0,61,0.00,,,0.00,WUHU21623XXSP,2013-01-11 02:01:00,
2013-01-10 18:06:00,38.8,26.9,29.92,NNE,22,0.0,0.0,62,0.00,,,0.00,WUHU21623XXSP,2013-01-11 02:06:00,
2013-01-10 18:11:00,38.3,26.7,29.92,North,0,0.0,0.0,63,0.00,,,0.00,WUHU21623XXSP,2013-01-11 02:11:00,
2013-01-10 18:16:00,37.9,26.8,29.92,WNW,292,0.0,0.0,64,0.00,,,0.00,WUHU21623XXSP,2013-01-11 02:16:00,
2013-01-10 18:21:00,37.8,27.0,29.92,WNW,292,0.0,0.0,65,0.00,,,0.00,WUHU21623XXSP,2013-01-11 02:21:00,
2013-01-10 18:26:00,37.2,26.5,29.92,WNW,292,0.0,0.0,65,0.00,,,0.00,WUHU21623XXSP,2013-01-11 02:26:00,
2013-01-10 18:31:00,37.0,26.7,29.92,WNW,292,0.0,0.0,66,0.00,,,0.00,WUHU21623XXSP,2013-01-11 02:31:00,
2013-01-10 18:36:00,36.7,26.7,29.92,WNW,292,0.0,0.0,67,0.00,,,0.00,WUHU21623XXSP,2013-01-11 02:36:00,
2013-01-10 18:41:00,36.3,26.8,29.92,WNW,292,0.0,0.0,68,0.00,,,0.00,WUHU21623XXSP,2013-01-11 02:41:00,
2013-01-10 18:46:00,36.1,26.9,29.93,WNW,292,0.0,0.0,69,0.00,,,0.00,WUHU21623XXSP,2013-01-11 02:46:00,
2013-01-10 18:51:00,35.8,27.0,29.92,WNW,292,0.0,0.0,70,0.00,,,0.00,WUHU21623XXSP,2013-01-11 02:51:00,
2013-01-10 18:56:00,35.8,27.0,29.93,WNW,292,0.0,0.0,70,0.00,,,0.00,WUHU21623XXSP,2013-01-11 02:56:00,
2013-01-10 19:01:00,35.4,26.9,29.92,WNW,292,0.0,0.0,71,0.00,,,0.00,WUHU21623XXSP,2013-01-11 03:01:00,
2013-01-10 19:06:00,35.4,26.9,29.92,WNW,292,0.0,0.0,71,0.00,,,0.00,WUHU21623XXSP,2013-01-11 03:06:00,
2013-01-10 19:11:00,35.4,27.2,29.92,WNW,292,0.0,0.0,72,0.00,,,0.00,WUHU21623XXSP,2013-01-11 03:11:00,
2013-01-10 19:16:00,35.2,27.1,29.93,WNW,292,0.0,0.0,72,0.00,,,0.00,WUHU21623XXSP,2013-01-11 03:16:00,
2013-01-10 19:21:00,35.2,27.1,29.93,WNW,292,0.0,0.0,72,0.00,,,0.00,WUHU21623XXSP,2013-01-11 03:21:00,
2013-01-10 19:26:00,35.2,27.1,29.92,WNW,292,0.0,0.0,72,0.00,,,0.00,WUHU21623XXSP,2013-01-11 03:26:00,
2013-01-10 19:31:00,34.9,27.0,29.93,WNW,292,0.0,0.0,73,0.00,,,0.00,WUHU21623XXSP,2013-01-11 03:31:00,
2013-01-10 19:36:00,34.9,27.0,29.93,WNW,292,0.0,0.0,73,0.00,,,0.00,WUHU21623XXSP,2013-01-11 03:36:00,
2013-01-10 19:41:00,34.5,26.7,29.92,WNW,292,0.0,0.0,73,0.00,,,0.00,WUHU21623XXSP,2013-01-11 03:41:00,
2013-01-10 19:46:00,34.5,27.0,29.92,WNW,292,0.0,0.0,74,0.00,,,0.00,WUHU21623XXSP,2013-01-11 03:46:00,
2013-01-10 19:51:00,34.3,26.8,29.92,WNW,292,0.0,0.0,74,0.00,,,0.00,WUHU21623XXSP,2013-01-11 03:51:00,
2013-01-10 19:56:00,34.3,26.8,29.93,WNW,292,0.0,0.0,74,0.00,,,0.00,WUHU21623XXSP,2013-01-11 03:56:00,
2013-01-10 20:01:00,34.3,27.1,29.92,WNW,292,0.0,0.0,75,0.00,,,0.00,WUHU21623XXSP,2013-01-11 04:01:00,
2013-01-10 20:07:00,34.3,27.1,29.92,NW,315,0.0,0.0,75,0.00,,,0.00,WUHU21623XXSP,2013-01-11 04:07:00,
2013-01-10 20:12:00,34.3,27.1,29.92,ESE,112,0.0,0.0,75,0.00,,,0.00,WUHU21623XXSP,2013-01-11 04:12:00,
2013-01-10 20:17:00,34.2,27.0,29.92,ESE,112,0.0,0.0,75,0.00,,,0.00,WUHU21623XXSP,2013-01-11 04:17:00,
2013-01-10 20:22:00,34.2,27.3,29.92,ESE,112,0.0,0.0,76,0.00,,,0.00,WUHU21623XXSP,2013-01-11 04:22:00,
2013-01-10 20:27:00,34.0,27.1,29.93,ESE,112,0.0,0.0,76,0.00,,,0.00,WUHU21623XXSP,2013-01-11 04:27:00,
2013-01-10 20:32:00,33.6,26.8,29.93,ESE,112,0.0,0.0,76,0.00,,,0.00,WUHU21623XXSP,2013-01-11 04:32:00,
2013-01-10 20:37:00,33.6,26.8,29.93,ESE,112,0.0,0.0,76,0.00,,,0.00,WUHU21623XXSP,2013-01-11 04:37:00,
2013-01-10 20:42:00,33.6,26.8,29.93,ESE,112,0.0,0.0,76,0.00,,,0.00,WUHU21623XXSP,2013-01-11 04:42:00,
2013-01-10 20:47:00,33.4,26.9,29.93,ESE,112,0.0,0.0,77,0.00,,,0.00,WUHU21623XXSP,2013-01-11 04:47:00,
2013-01-10 20:52:00,33.4,26.9,29.93,ESE,112,0.0,0.0,77,0.00,,,0.00,WUHU21623XXSP,2013-01-11 04:52:00,
2013-01-10 20:57:00,33.1,26.6,29.93,ESE,112,0.0,0.0,77,0.00,,,0.00,WUHU21623XXSP,2013-01-11 04:57:00,
2013-01-10 21:00:00,33.1,26.6,29.93,ESE,112,0.0,0.0,77,0.00,,,0.00,WUHU21623XXSP,2013-01-11 05:00:00,
2013-01-10 21:02:00,33.1,26.6,29.93,ESE,112,0.0,0.0,77,0.00,,,0.00,WUHU21623XXSP,2013-01-11 05:02:00,
2013-01-10 21:03:00,33.1,26.6,29.93,ESE,112,0.0,0.0,77,0.00,,,0.00,WUHU21623XXSP,2013-01-11 05:03:00,
2013-01-10 21:08:00,33.1,26.6,29.93,ESE,112,0.0,0.0,77,0.00,,,0.00,WUHU21623XXSP,2013-01-11 05:08:00,
2013-01-10 21:13:00,33.1,26.6,29.93,ESE,112,0.0,0.0,77,0.00,,,0.00,WUHU21623XXSP,2013-01-11 05:13:00,
2013-01-10 21:18:00,32.7,26.3,29.93,ESE,112,0.0,0.0,77,0.00,,,0.00,WUHU21623XXSP,2013-01-11 05:18:00,
2013-01-10 21:23:00,32.7,26.3,29.93,ESE,112,0.0,0.0,77,0.00,,,0.00,WUHU21623XXSP,2013-01-11 05:23:00,
2013-01-10 21:28:00,32.7,26.6,29.94,ESE,112,0.0,0.0,78,0.00,,,0.00,WUHU21623XXSP,2013-01-11 05:28:00,
2013-01-10 21:33:00,32.7,26.6,29.94,ESE,112,0.0,0.0,78,0.00,,,0.00,WUHU21623XXSP,2013-01-11 05:33:00,
2013-01-10 21:38:00,32.7,26.6,29.94,ESE,112,0.0,0.0,78,0.00,,,0.00,WUHU21623XXSP,2013-01-11 05:38:00,
2013-01-10 21:43:00,32.5,26.4,29.94,ESE,112,0.0,0.0,78,0.00,,,0.00,WUHU21623XXSP,2013-01-11 05:43:00,
2013-01-10 21:48:00,32.5,26.4,29.94,ESE,112,0.0,0.0,78,0.00,,,0.00,WUHU21623XXSP,2013-01-11 05:48:00,
2013-01-10 21:53:00,32.4,26.6,29.94,ESE,112,0.0,0.0,79,0.00,,,0.00,WUHU21623XXSP,2013-01-11 05:53:00,
2013-01-10 21:58:00,32.4,26.6,29.94,ESE,112,0.0,0.0,79,0.00,,,0.00,WUHU21623XXSP,2013-01-11 05:58:00,
2013-01-10 22:03:00,32.4,26.6,29.94,ESE,112,0.0,0.0,79,0.00,,,0.00,WUHU21623XXSP,2013-01-11 06:03:00,
2013-01-10 22:08:00,32.4,26.6,29.94,ESE,112,0.0,0.0,79,0.00,,,0.00,WUHU21623XXSP,2013-01-11 06:08:00,
2013-01-10 22:13:00,32.2,26.4,29.94,ESE,112,0.0,0.0,79,0.00,,,0.00,WUHU21623XXSP,2013-01-11 06:13:00,
2013-01-10 22:18:00,32.2,26.4,29.94,ESE,112,0.0,0.0,79,0.00,,,0.00,WUHU21623XXSP,2013-01-11 06:18:00,
2013-01-10 22:23:00,32.2,26.4,29.93,ESE,112,0.0,0.0,79,0.00,,,0.00,WUHU21623XXSP,2013-01-11 06:23:00,
2013-01-10 22:28:00,32.2,26.4,29.94,ESE,112,0.0,0.0,79,0.00,,,0.00,WUHU21623XXSP,2013-01-11 06:28:00,
2013-01-10 22:33:00,32.2,26.4,29.94,ESE,112,0.0,0.0,79,0.00,,,0.00,WUHU21623XXSP,2013-01-11 06:33:00,
2013-01-10 22:38:00,32.2,26.4,29.94,ESE,112,0.0,0.0,79,0.00,,,0.00,WUHU21623XXSP,2013-01-11 06:38:00,
2013-01-10 22:43:00,32.2,26.4,29.94,ESE,112,0.0,0.0,79,0.00,,,0.00,WUHU21623XXSP,2013-01-11 06:43:00,
2013-01-10 22:48:00,32.0,26.3,29.94,ESE,112,0.0,0.0,79,0.00,,,0.00,WUHU21623XXSP,2013-01-11 06:48:00,
2013-01-10 22:53:00,31.8,26.1,29.94,ESE,112,0.0,0.0,79,0.00,,,0.00,WUHU21623XXSP,2013-01-11 06:53:00,
2013-01-10 22:58:00,31.8,26.4,29.94,ESE,112,0.0,0.0,80,0.00,,,0.00,WUHU21623XXSP,2013-01-11 06:58:00,
2013-01-10 23:03:00,31.8,26.4,29.94,ESE,112,0.0,0.0,80,0.00,,,0.00,WUHU21623XXSP,2013-01-11 07:03:00,
2013-01-10 23:08:00,31.8,26.4,29.95,ESE,112,0.0,0.0,80,0.00,,,0.00,WUHU21623XXSP,2013-01-11 07:08:00,
2013-01-10 23:13:00,31.8,26.4,29.95,ESE,112,0.0,0.0,80,0.00,,,0.00,WUHU21623XXSP,2013-01-11 07:13:00,
2013-01-10 23:18:00,31.8,26.4,29.95,ESE,112,0.0,0.0,80,0.00,,,0.00,WUHU21623XXSP,2013-01-11 07:18:00,
2013-01-10 23:23:00,31.6,26.2,29.95,ESE,112,0.0,0.0,80,0.00,,,0.00,WUHU21623XXSP,2013-01-11 07:23:00,
2013-01-10 23:28:00,31.6,26.2,29.95,ESE,112,0.0,0.0,80,0.00,,,0.00,WUHU21623XXSP,2013-01-11 07:28:00,
2013-01-10 23:33:00,31.6,26.2,29.95,ESE,112,0.0,0.0,80,0.00,,,0.00,WUHU21623XXSP,2013-01-11 07:33:00,
2013-01-10 23:38:00,31.6,26.2,29.95,ESE,112,0.0,0.0,80,0.00,,,0.00,WUHU21623XXSP,2013-01-11 07:38:00,
2013-01-10 23:43:00,31.6,26.2,29.95,ESE,112,0.0,0.0,80,0.00,,,0.00,WUHU21623XXSP,2013-01-11 07:43:00,
2013-01-10 23:48:00,31.6,26.2,29.95,ESE,112,0.0,0.0,80,0.00,,,0.00,WUHU21623XXSP,2013-01-11 07:48:00,
2013-01-10 23:53:00,31.6,26.2,29.95,ESE,112,0.0,0.0,80,0.00,,,0.00,WUHU21623XXSP,2013-01-11 07:53:00,
2013-01-10 23:58:00,31.5,26.1,29.95,ESE,112,0.0,0.0,80,0.00,,,0.00,WUHU21623XXSP,2013-01-11 07:58:00,